Time,TemperatureF,DewpointF,PressureIn,WindDirection,WindDirectionDegrees,WindSpeedMPH,WindSpeedGustMPH,Humidity,HourlyPrecipIn,Conditions,Clouds,dailyrainin,SoftwareType,DateUTC
2013-06-03 00:01:00,72.8,51.4,29.66,ESE,123,5.0,6.0,47,0.00,,---,0.00,VWS V14.01,2013-06-03 07:01:00,
2013-06-03 00:07:00,72.6,51.2,29.66,ESE,123,1.0,4.0,47,0.00,,---,0.00,VWS V14.01,2013-06-03 07:07:00,
2013-06-03 00:12:00,72.4,51.0,29.65,ESE,123,3.0,3.0,47,0.00,,---,0.00,VWS V14.01,2013-06-03 07:12:00,
2013-06-03 00:17:00,72.1,51.3,29.65,SE,124,3.0,4.0,48,0.00,,---,0.00,VWS V14.01,2013-06-03 07:17:00,
2013-06-03 00:22:00,72.0,51.8,29.65,ESE,121,2.0,4.0,49,0.00,,---,0.00,VWS V14.01,2013-06-03 07:22:00,
2013-06-03 00:27:00,71.8,51.6,29.65,SE,124,2.0,3.0,49,0.00,,---,0.00,VWS V14.01,2013-06-03 07:27:00,
2013-06-03 00:32:00,71.6,51.5,29.65,ESE,121,1.0,3.0,49,0.00,,---,0.00,VWS V14.01,2013-06-03 07:32:00,
2013-06-03 00:37:00,71.3,51.2,29.66,ESE,123,1.0,3.0,49,0.00,,---,0.00,VWS V14.01,2013-06-03 07:37:00,
2013-06-03 00:42:00,71.3,51.2,29.65,SE,126,6.0,6.0,49,0.00,,---,0.00,VWS V14.01,2013-06-03 07:42:00,
2013-06-03 00:47:00,71.0,50.9,29.65,SE,126,2.0,5.0,49,0.00,,---,0.00,VWS V14.01,2013-06-03 07:47:00,
2013-06-03 00:52:00,70.8,50.7,29.65,SE,128,0.0,4.0,49,0.00,,---,0.00,VWS V14.01,2013-06-03 07:52:00,
2013-06-03 00:57:00,70.6,50.5,29.65,SE,130,5.0,5.0,49,0.00,,---,0.00,VWS V14.01,2013-06-03 07:57:00,
2013-06-03 01:02:00,70.3,51.3,29.66,SE,131,1.0,6.0,51,0.00,,---,0.00,VWS V14.01,2013-06-03 08:02:00,
2013-06-03 01:07:00,70.2,50.7,29.65,SE,130,0.0,0.0,50,0.00,,---,0.00,VWS V14.01,2013-06-03 08:07:00,
2013-06-03 01:12:00,70.0,50.0,29.66,SE,132,1.0,4.0,49,0.00,,---,0.00,VWS V14.01,2013-06-03 08:12:00,
2013-06-03 01:17:00,69.8,50.3,29.66,SE,132,4.0,4.0,50,0.00,,---,0.00,VWS V14.01,2013-06-03 08:17:00,
2013-06-03 01:22:00,69.5,50.1,29.66,SE,136,4.0,6.0,50,0.00,,---,0.00,VWS V14.01,2013-06-03 08:22:00,
2013-06-03 01:27:00,69.3,50.4,29.66,SE,136,1.0,3.0,51,0.00,,---,0.00,VWS V14.01,2013-06-03 08:27:00,
2013-06-03 01:32:00,69.1,50.2,29.66,SE,137,3.0,5.0,51,0.00,,---,0.00,VWS V14.01,2013-06-03 08:32:00,
2013-06-03 01:37:00,68.9,50.0,29.66,SE,137,4.0,4.0,51,0.00,,---,0.00,VWS V14.01,2013-06-03 08:37:00,
2013-06-03 01:42:00,68.7,50.4,29.66,SE,137,0.0,3.0,52,0.00,,---,0.00,VWS V14.01,2013-06-03 08:42:00,
2013-06-03 01:47:00,68.5,50.2,29.66,SE,137,4.0,4.0,52,0.00,,---,0.00,VWS V14.01,2013-06-03 08:47:00,
2013-06-03 01:52:00,68.2,50.4,29.66,SE,144,4.0,4.0,53,0.00,,---,0.00,VWS V14.01,2013-06-03 08:52:00,
2013-06-03 01:57:00,68.0,50.2,29.66,SE,144,0.0,3.0,53,0.00,,---,0.00,VWS V14.01,2013-06-03 08:57:00,
2013-06-03 02:02:00,67.8,50.1,29.66,SE,143,0.0,3.0,53,0.00,,---,0.00,VWS V14.01,2013-06-03 09:02:00,
2013-06-03 02:07:00,67.6,49.9,29.66,SE,143,4.0,4.0,53,0.00,,---,0.00,VWS V14.01,2013-06-03 09:07:00,
2013-06-03 02:12:00,67.4,50.2,29.66,SE,144,0.0,3.0,54,0.00,,---,0.00,VWS V14.01,2013-06-03 09:12:00,
2013-06-03 02:17:00,67.2,50.0,29.66,SE,142,1.0,3.0,54,0.00,,---,0.00,VWS V14.01,2013-06-03 09:17:00,
2013-06-03 02:22:00,67.1,50.4,29.66,SE,142,3.0,3.0,55,0.00,,---,0.00,VWS V14.01,2013-06-03 09:22:00,
2013-06-03 02:27:00,67.0,50.3,29.66,SE,142,1.0,2.0,55,0.00,,---,0.00,VWS V14.01,2013-06-03 09:27:00,
2013-06-03 02:32:00,66.8,50.6,29.66,SE,142,0.0,0.0,56,0.00,,---,0.00,VWS V14.01,2013-06-03 09:32:00,
2013-06-03 02:37:00,66.6,50.4,29.66,SE,142,4.0,5.0,56,0.00,,---,0.00,VWS V14.01,2013-06-03 09:37:00,
2013-06-03 02:42:00,66.5,50.8,29.66,SE,140,4.0,4.0,57,0.00,,---,0.00,VWS V14.01,2013-06-03 09:42:00,
2013-06-03 02:47:00,66.3,50.6,29.66,SE,140,0.0,5.0,57,0.00,,---,0.00,VWS V14.01,2013-06-03 09:47:00,
2013-06-03 02:52:00,66.2,50.5,29.66,SE,142,2.0,3.0,57,0.00,,---,0.00,VWS V14.01,2013-06-03 09:52:00,
2013-06-03 02:57:00,66.0,50.8,29.66,SE,142,0.0,0.0,58,0.00,,---,0.00,VWS V14.01,2013-06-03 09:57:00,
2013-06-03 03:02:00,65.9,51.2,29.66,SE,142,0.0,0.0,59,0.00,,---,0.00,VWS V14.01,2013-06-03 10:02:00,
2013-06-03 03:07:00,65.8,51.1,29.66,ESE,121,5.0,5.0,59,0.00,,---,0.00,VWS V14.01,2013-06-03 10:07:00,
2013-06-03 03:12:00,65.7,51.0,29.66,SE,129,1.0,5.0,59,0.00,,---,0.00,VWS V14.01,2013-06-03 10:12:00,
2013-06-03 03:17:00,65.5,51.3,29.66,SE,129,0.0,1.0,60,0.00,,---,0.00,VWS V14.01,2013-06-03 10:17:00,
2013-06-03 03:22:00,65.2,51.0,29.67,SE,129,0.0,0.0,60,0.00,,---,0.00,VWS V14.01,2013-06-03 10:22:00,
2013-06-03 03:27:00,65.1,51.3,29.67,SE,129,0.0,0.0,61,0.00,,---,0.00,VWS V14.01,2013-06-03 10:27:00,
2013-06-03 03:32:00,65.0,51.2,29.67,SE,129,0.0,1.0,61,0.00,,---,0.00,VWS V14.01,2013-06-03 10:32:00,
2013-06-03 03:37:00,64.8,51.0,29.66,ESE,122,2.0,6.0,61,0.00,,---,0.00,VWS V14.01,2013-06-03 10:37:00,
2013-06-03 03:42:00,64.7,51.0,29.67,SE,129,2.0,4.0,61,0.00,,---,0.00,VWS V14.01,2013-06-03 10:42:00,
2013-06-03 03:47:00,64.5,51.2,29.67,SE,129,0.0,0.0,62,0.00,,---,0.00,VWS V14.01,2013-06-03 10:47:00,
2013-06-03 03:52:00,64.4,51.5,29.67,SE,129,0.0,0.0,63,0.00,,---,0.00,VWS V14.01,2013-06-03 10:52:00,
2013-06-03 03:57:00,64.3,51.5,29.66,SE,129,1.0,3.0,63,0.00,,---,0.00,VWS V14.01,2013-06-03 10:57:00,
2013-06-03 04:02:00,64.1,51.3,29.66,SE,129,2.0,3.0,63,0.00,,---,0.00,VWS V14.01,2013-06-03 11:02:00,
2013-06-03 04:07:00,64.0,51.2,29.66,SE,132,3.0,5.0,63,0.00,,---,0.00,VWS V14.01,2013-06-03 11:07:00,
2013-06-03 04:12:00,63.9,51.1,29.66,SE,134,0.0,4.0,63,0.00,,---,0.00,VWS V14.01,2013-06-03 11:12:00,
2013-06-03 04:17:00,63.8,51.4,29.66,SE,130,4.0,6.0,64,0.00,,---,0.00,VWS V14.01,2013-06-03 11:17:00,
2013-06-03 04:22:00,63.7,51.3,29.66,SE,128,0.0,0.0,64,0.00,,---,0.00,VWS V14.01,2013-06-03 11:22:00,
2013-06-03 04:27:00,63.6,52.0,29.67,SE,128,0.0,0.0,66,0.00,,---,0.00,VWS V14.01,2013-06-03 11:27:00,
2013-06-03 04:32:00,63.6,51.6,29.67,SE,128,1.0,1.0,65,0.00,,---,0.00,VWS V14.01,2013-06-03 11:32:00,
2013-06-03 04:37:00,63.4,51.4,29.67,SE,129,4.0,4.0,65,0.00,,---,0.00,VWS V14.01,2013-06-03 11:37:00,
2013-06-03 04:42:00,63.3,51.3,29.67,SE,129,0.0,0.0,65,0.00,,---,0.00,VWS V14.01,2013-06-03 11:42:00,
2013-06-03 04:47:00,63.2,51.7,29.68,SE,128,0.0,0.0,66,0.00,,---,0.00,VWS V14.01,2013-06-03 11:47:00,
2013-06-03 04:52:00,63.1,51.6,29.67,SE,128,0.0,0.0,66,0.00,,---,0.00,VWS V14.01,2013-06-03 11:52:00,
2013-06-03 04:57:00,63.0,51.9,29.67,SE,129,0.0,0.0,67,0.00,,---,0.00,VWS V14.01,2013-06-03 11:57:00,
2013-06-03 05:02:00,62.9,51.8,29.67,SE,128,0.0,0.0,67,0.00,,---,0.00,VWS V14.01,2013-06-03 12:02:00,
2013-06-03 05:07:00,62.8,51.7,29.67,SE,129,1.0,3.0,67,0.00,,---,0.00,VWS V14.01,2013-06-03 12:07:00,
2013-06-03 05:12:00,62.7,51.6,29.68,SE,129,0.0,0.0,67,0.00,,---,0.00,VWS V14.01,2013-06-03 12:12:00,
2013-06-03 05:17:00,62.5,51.4,29.67,SE,128,0.0,1.0,67,0.00,,---,0.00,VWS V14.01,2013-06-03 12:17:00,
2013-06-03 05:22:00,62.4,51.3,29.67,SE,128,0.0,0.0,67,0.00,,---,0.00,VWS V14.01,2013-06-03 12:22:00,
2013-06-03 05:27:00,62.3,51.6,29.68,SE,128,3.0,4.0,68,0.00,,---,0.00,VWS V14.01,2013-06-03 12:27:00,
2013-06-03 05:32:00,62.2,51.9,29.68,SE,129,0.0,0.0,69,0.00,,---,0.00,VWS V14.01,2013-06-03 12:32:00,
2013-06-03 05:37:00,62.2,51.5,29.68,SE,125,0.0,0.0,68,0.00,,---,0.00,VWS V14.01,2013-06-03 12:37:00,
2013-06-03 05:42:00,62.0,51.3,29.68,SE,125,4.0,4.0,68,0.00,,---,0.00,VWS V14.01,2013-06-03 12:42:00,
2013-06-03 05:47:00,62.0,51.7,29.68,SE,124,2.0,2.0,69,0.00,,---,0.00,VWS V14.01,2013-06-03 12:47:00,
2013-06-03 05:52:00,61.9,52.4,29.68,ESE,123,0.0,0.0,71,0.00,,---,0.00,VWS V14.01,2013-06-03 12:52:00,
2013-06-03 05:57:00,61.9,51.6,29.68,SSW,202,0.0,1.0,69,0.00,,---,0.00,VWS V14.01,2013-06-03 12:57:00,
2013-06-03 06:02:00,61.8,51.5,29.68,SSE,150,0.0,0.0,69,0.00,,---,0.00,VWS V14.01,2013-06-03 13:02:00,
2013-06-03 06:07:00,61.8,51.9,29.69,SSE,150,0.0,0.0,70,0.00,,---,0.00,VWS V14.01,2013-06-03 13:07:00,
2013-06-03 06:12:00,61.8,51.9,29.69,SE,138,0.0,0.0,70,0.00,,---,0.00,VWS V14.01,2013-06-03 13:12:00,
2013-06-03 06:17:00,61.8,51.9,29.69,SE,140,0.0,0.0,70,0.00,,---,0.00,VWS V14.01,2013-06-03 13:17:00,
2013-06-03 06:22:00,61.8,51.9,29.69,SE,130,0.0,0.0,70,0.00,,---,0.00,VWS V14.01,2013-06-03 13:22:00,
2013-06-03 06:27:00,61.8,51.9,29.69,SE,129,1.0,2.0,70,0.00,,---,0.00,VWS V14.01,2013-06-03 13:27:00,
2013-06-03 06:32:00,61.8,51.9,29.70,SE,131,2.0,4.0,70,0.00,,---,0.00,VWS V14.01,2013-06-03 13:32:00,
2013-06-03 06:37:00,61.9,52.0,29.70,SE,131,2.0,3.0,70,0.00,,---,0.00,VWS V14.01,2013-06-03 13:37:00,
2013-06-03 06:42:00,62.0,52.1,29.69,SE,131,1.0,2.0,70,0.00,,---,0.00,VWS V14.01,2013-06-03 13:42:00,
2013-06-03 06:47:00,62.1,52.2,29.70,SE,131,0.0,0.0,70,0.00,,---,0.00,VWS V14.01,2013-06-03 13:47:00,
2013-06-03 06:52:00,62.3,52.4,29.70,ESE,111,2.0,2.0,70,0.00,,---,0.00,VWS V14.01,2013-06-03 13:52:00,
2013-06-03 06:57:00,62.5,53.4,29.70,ENE,73,2.0,2.0,72,0.00,,---,0.00,VWS V14.01,2013-06-03 13:57:00,
2013-06-03 07:02:00,62.7,52.8,29.70,SE,135,0.0,1.0,70,0.00,,---,0.00,VWS V14.01,2013-06-03 14:02:00,
2013-06-03 07:07:00,62.8,52.5,29.70,SSE,167,1.0,3.0,69,0.00,,---,0.00,VWS V14.01,2013-06-03 14:07:00,
2013-06-03 07:12:00,62.9,52.2,29.71,SSE,167,1.0,1.0,68,0.00,,---,0.00,VWS V14.01,2013-06-03 14:12:00,
2013-06-03 07:17:00,63.1,52.8,29.71,NNE,18,0.0,0.0,69,0.00,,---,0.00,VWS V14.01,2013-06-03 14:17:00,
2013-06-03 07:22:00,63.3,52.6,29.71,NE,52,0.0,0.0,68,0.00,,---,0.00,VWS V14.01,2013-06-03 14:22:00,
2013-06-03 07:27:00,63.5,52.8,29.71,ENE,76,1.0,3.0,68,0.00,,---,0.00,VWS V14.01,2013-06-03 14:27:00,
2013-06-03 07:32:00,63.7,53.0,29.71,ENE,76,0.0,2.0,68,0.00,,---,0.00,VWS V14.01,2013-06-03 14:32:00,
2013-06-03 07:37:00,64.0,52.8,29.71,ENE,78,0.0,1.0,67,0.00,,---,0.00,VWS V14.01,2013-06-03 14:37:00,
2013-06-03 07:42:00,64.2,53.0,29.71,ENE,78,0.0,0.0,67,0.00,,---,0.00,VWS V14.01,2013-06-03 14:42:00,
2013-06-03 07:47:00,64.4,52.8,29.72,East,80,2.0,3.0,66,0.00,,---,0.00,VWS V14.01,2013-06-03 14:47:00,
2013-06-03 07:52:00,64.7,53.9,29.72,East,80,0.0,0.0,68,0.00,,---,0.00,VWS V14.01,2013-06-03 14:52:00,
2013-06-03 07:57:00,65.0,53.4,29.72,East,80,3.0,3.0,66,0.00,,---,0.00,VWS V14.01,2013-06-03 14:57:00,
2013-06-03 08:02:00,65.2,53.2,29.72,East,80,0.0,0.0,65,0.00,,---,0.00,VWS V14.01,2013-06-03 15:02:00,
2013-06-03 08:07:00,65.5,53.4,29.72,East,80,0.0,0.0,65,0.00,,---,0.00,VWS V14.01,2013-06-03 15:07:00,
2013-06-03 08:12:00,65.7,53.6,29.72,East,80,0.0,0.0,65,0.00,,---,0.00,VWS V14.01,2013-06-03 15:12:00,
2013-06-03 08:17:00,66.1,53.6,29.72,East,80,0.0,3.0,64,0.00,,---,0.00,VWS V14.01,2013-06-03 15:17:00,
2013-06-03 08:22:00,66.4,53.9,29.72,East,82,0.0,0.0,64,0.00,,---,0.00,VWS V14.01,2013-06-03 15:22:00,
2013-06-03 08:27:00,66.7,53.7,29.72,East,82,0.0,0.0,63,0.00,,---,0.00,VWS V14.01,2013-06-03 15:27:00,
2013-06-03 08:32:00,67.1,54.1,29.73,East,82,0.0,0.0,63,0.00,,---,0.00,VWS V14.01,2013-06-03 15:32:00,
2013-06-03 08:37:00,67.6,54.1,29.73,East,82,0.0,1.0,62,0.00,,---,0.00,VWS V14.01,2013-06-03 15:37:00,
2013-06-03 08:42:00,68.1,54.6,29.73,SSE,161,0.0,0.0,62,0.00,,---,0.00,VWS V14.01,2013-06-03 15:42:00,
2013-06-03 08:47:00,68.5,54.5,29.72,SSE,161,0.0,0.0,61,0.00,,---,0.00,VWS V14.01,2013-06-03 15:47:00,
2013-06-03 08:52:00,68.9,54.9,29.72,SSE,153,0.0,0.0,61,0.00,,---,0.00,VWS V14.01,2013-06-03 15:52:00,
2013-06-03 08:57:00,69.5,55.0,29.72,SSE,150,3.0,5.0,60,0.00,,---,0.00,VWS V14.01,2013-06-03 15:57:00,
2013-06-03 09:02:00,70.1,55.1,29.72,SSE,148,1.0,2.0,59,0.00,,---,0.00,VWS V14.01,2013-06-03 16:02:00,
2013-06-03 09:07:00,70.5,55.0,29.73,SSE,153,5.0,5.0,58,0.00,,---,0.00,VWS V14.01,2013-06-03 16:07:00,
2013-06-03 09:12:00,71.0,55.0,29.73,SSE,150,0.0,2.0,57,0.00,,---,0.00,VWS V14.01,2013-06-03 16:12:00,
2013-06-03 09:17:00,71.5,55.5,29.73,SSE,150,1.0,3.0,57,0.00,,---,0.00,VWS V14.01,2013-06-03 16:17:00,
2013-06-03 09:22:00,71.9,55.4,29.73,SSE,151,0.0,0.0,56,0.00,,---,0.00,VWS V14.01,2013-06-03 16:22:00,
2013-06-03 09:27:00,72.6,55.5,29.73,SE,146,3.0,4.0,55,0.00,,---,0.00,VWS V14.01,2013-06-03 16:27:00,
2013-06-03 09:32:00,73.3,55.2,29.73,SE,146,0.0,0.0,53,0.00,,---,0.00,VWS V14.01,2013-06-03 16:32:00,
2013-06-03 09:37:00,73.7,56.0,29.73,SE,146,0.0,1.0,54,0.00,,---,0.00,VWS V14.01,2013-06-03 16:37:00,
2013-06-03 09:42:00,74.0,55.8,29.73,SE,146,0.0,0.0,53,0.00,,---,0.00,VWS V14.01,2013-06-03 16:42:00,
2013-06-03 09:47:00,74.5,56.3,29.73,SE,146,0.0,2.0,53,0.00,,---,0.00,VWS V14.01,2013-06-03 16:47:00,
2013-06-03 09:52:00,74.5,55.2,29.73,SE,146,1.0,2.0,51,0.00,,---,0.00,VWS V14.01,2013-06-03 16:52:00,
2013-06-03 09:57:00,74.9,55.6,29.73,SSE,147,0.0,0.0,51,0.00,,---,0.00,VWS V14.01,2013-06-03 16:57:00,
2013-06-03 10:02:00,75.1,55.8,29.73,South,187,0.0,2.0,51,0.00,,---,0.00,VWS V14.01,2013-06-03 17:02:00,
2013-06-03 10:07:00,75.5,56.1,29.73,South,188,0.0,0.0,51,0.00,,---,0.00,VWS V14.01,2013-06-03 17:07:00,
2013-06-03 10:12:00,76.3,56.3,29.73,SW,229,0.0,0.0,50,0.00,,---,0.00,VWS V14.01,2013-06-03 17:12:00,
2013-06-03 10:17:00,76.9,56.3,29.73,South,183,0.0,0.0,49,0.00,,---,0.00,VWS V14.01,2013-06-03 17:17:00,
2013-06-03 10:22:00,77.6,56.4,29.73,SSE,164,1.0,2.0,48,0.00,,---,0.00,VWS V14.01,2013-06-03 17:22:00,
2013-06-03 10:27:00,78.0,56.2,29.73,SSE,163,0.0,0.0,47,0.00,,---,0.00,VWS V14.01,2013-06-03 17:27:00,
2013-06-03 10:32:00,78.7,56.2,29.73,SSE,163,0.0,1.0,46,0.00,,---,0.00,VWS V14.01,2013-06-03 17:32:00,
2013-06-03 10:37:00,78.8,56.9,29.73,SSE,163,0.0,0.0,47,0.00,,---,0.00,VWS V14.01,2013-06-03 17:37:00,
2013-06-03 10:42:00,79.3,56.1,29.73,SSE,165,3.0,3.0,45,0.00,,---,0.00,VWS V14.01,2013-06-03 17:42:00,
2013-06-03 10:47:00,79.7,55.2,29.73,South,179,0.0,0.0,43,0.00,,---,0.00,VWS V14.01,2013-06-03 17:47:00,
2013-06-03 10:52:00,79.5,55.7,29.73,South,179,0.0,0.0,44,0.00,,---,0.00,VWS V14.01,2013-06-03 17:52:00,
2013-06-03 10:57:00,79.8,55.3,29.73,South,173,0.0,0.0,43,0.00,,---,0.00,VWS V14.01,2013-06-03 17:57:00,
2013-06-03 11:02:00,80.1,56.2,29.73,SW,234,0.0,1.0,44,0.00,,---,0.00,VWS V14.01,2013-06-03 18:02:00,
2013-06-03 11:07:00,80.5,56.0,29.73,South,188,0.0,0.0,43,0.00,,---,0.00,VWS V14.01,2013-06-03 18:07:00,
2013-06-03 11:12:00,80.9,57.0,29.73,South,188,0.0,0.0,44,0.00,,---,0.00,VWS V14.01,2013-06-03 18:12:00,
2013-06-03 11:17:00,81.3,56.0,29.73,South,178,0.0,4.0,42,0.00,,---,0.00,VWS V14.01,2013-06-03 18:17:00,
2013-06-03 11:22:00,81.8,56.5,29.73,South,178,3.0,4.0,42,0.00,,---,0.00,VWS V14.01,2013-06-03 18:22:00,
2013-06-03 11:27:00,82.0,56.0,29.73,South,178,2.0,2.0,41,0.00,,---,0.00,VWS V14.01,2013-06-03 18:27:00,
2013-06-03 11:32:00,82.3,56.9,29.73,South,185,0.0,0.0,42,0.00,,---,0.00,VWS V14.01,2013-06-03 18:32:00,
2013-06-03 11:37:00,82.9,56.1,29.73,South,186,4.0,4.0,40,0.00,,---,0.00,VWS V14.01,2013-06-03 18:37:00,
2013-06-03 11:42:00,83.1,56.3,29.73,SSE,165,3.0,5.0,40,0.00,,---,0.00,VWS V14.01,2013-06-03 18:42:00,
2013-06-03 11:47:00,83.4,55.9,29.73,SE,143,0.0,3.0,39,0.00,,---,0.00,VWS V14.01,2013-06-03 18:47:00,
2013-06-03 11:52:00,83.9,57.0,29.73,SE,143,2.0,2.0,40,0.00,,---,0.00,VWS V14.01,2013-06-03 18:52:00,
2013-06-03 11:57:00,84.1,56.5,29.73,SE,143,0.0,1.0,39,0.00,,---,0.00,VWS V14.01,2013-06-03 18:57:00,
2013-06-03 12:02:00,84.5,56.8,29.73,SSE,161,4.0,4.0,39,0.00,,---,0.00,VWS V14.01,2013-06-03 19:02:00,
2013-06-03 12:07:00,84.7,56.3,29.73,SSE,162,3.0,5.0,38,0.00,,---,0.00,VWS V14.01,2013-06-03 19:07:00,
2013-06-03 12:12:00,84.7,57.0,29.73,SSE,154,0.0,0.0,39,0.00,,---,0.00,VWS V14.01,2013-06-03 19:12:00,
2013-06-03 12:17:00,85.0,55.8,29.73,SE,141,0.0,0.0,37,0.00,,---,0.00,VWS V14.01,2013-06-03 19:17:00,
2013-06-03 12:22:00,85.2,56.8,29.73,SE,141,3.0,3.0,38,0.00,,---,0.00,VWS V14.01,2013-06-03 19:22:00,
2013-06-03 12:27:00,86.0,57.5,29.72,SE,142,0.0,2.0,38,0.00,,---,0.00,VWS V14.01,2013-06-03 19:27:00,
2013-06-03 12:32:00,86.5,57.9,29.72,SE,142,0.0,2.0,38,0.00,,---,0.00,VWS V14.01,2013-06-03 19:32:00,
2013-06-03 12:37:00,86.8,57.4,29.72,SSE,148,0.0,0.0,37,0.00,,---,0.00,VWS V14.01,2013-06-03 19:37:00,
2013-06-03 12:42:00,87.0,56.8,29.72,SE,138,0.0,0.0,36,0.00,,---,0.00,VWS V14.01,2013-06-03 19:42:00,
2013-06-03 12:47:00,87.1,56.2,29.72,SE,143,0.0,0.0,35,0.00,,---,0.00,VWS V14.01,2013-06-03 19:47:00,
2013-06-03 12:52:00,87.6,55.8,29.72,SE,127,0.0,4.0,34,0.00,,---,0.00,VWS V14.01,2013-06-03 19:52:00,
2013-06-03 12:57:00,88.1,57.0,29.72,SE,130,0.0,1.0,35,0.00,,---,0.00,VWS V14.01,2013-06-03 19:57:00,
2013-06-03 13:02:00,88.3,57.2,29.72,ESE,120,0.0,1.0,35,0.00,,---,0.00,VWS V14.01,2013-06-03 20:02:00,
2013-06-03 13:07:00,88.5,56.6,29.72,ESE,123,0.0,0.0,34,0.00,,---,0.00,VWS V14.01,2013-06-03 20:07:00,
2013-06-03 13:12:00,88.8,57.7,29.72,ESE,123,0.0,1.0,35,0.00,,---,0.00,VWS V14.01,2013-06-03 20:12:00,
2013-06-03 13:17:00,89.3,57.3,29.71,ESE,123,0.0,0.0,34,0.00,,---,0.00,VWS V14.01,2013-06-03 20:17:00,
2013-06-03 13:22:00,89.7,56.8,29.71,SE,126,0.0,1.0,33,0.00,,---,0.00,VWS V14.01,2013-06-03 20:22:00,
2013-06-03 13:27:00,89.7,56.8,29.71,SE,140,0.0,1.0,33,0.00,,---,0.00,VWS V14.01,2013-06-03 20:27:00,
2013-06-03 13:32:00,90.1,58.0,29.71,West,271,0.0,0.0,34,0.00,,---,0.00,VWS V14.01,2013-06-03 20:32:00,
2013-06-03 13:37:00,90.6,58.4,29.71,West,275,0.0,4.0,34,0.00,,---,0.00,VWS V14.01,2013-06-03 20:37:00,
2013-06-03 13:42:00,90.7,57.7,29.71,WSW,250,0.0,0.0,33,0.00,,---,0.00,VWS V14.01,2013-06-03 20:42:00,
2013-06-03 13:47:00,90.9,57.0,29.71,West,270,1.0,3.0,32,0.00,,---,0.00,VWS V14.01,2013-06-03 20:47:00,
2013-06-03 13:52:00,91.2,57.2,29.71,WSW,244,4.0,4.0,32,0.00,,---,0.00,VWS V14.01,2013-06-03 20:52:00,
2013-06-03 13:57:00,91.3,58.2,29.71,SW,221,1.0,1.0,33,0.00,,---,0.00,VWS V14.01,2013-06-03 20:57:00,
2013-06-03 14:02:00,91.7,56.8,29.71,WSW,254,1.0,5.0,31,0.00,,---,0.00,VWS V14.01,2013-06-03 21:02:00,
2013-06-03 14:07:00,92.0,57.1,29.71,WSW,242,3.0,3.0,31,0.00,,---,0.00,VWS V14.01,2013-06-03 21:07:00,
2013-06-03 14:12:00,92.2,54.4,29.71,SSW,209,0.0,3.0,28,0.00,,---,0.00,VWS V14.01,2013-06-03 21:12:00,
2013-06-03 14:17:00,92.0,54.3,29.71,SW,232,0.0,10.0,28,0.00,,---,0.00,VWS V14.01,2013-06-03 21:17:00,
2013-06-03 14:22:00,92.0,54.3,29.71,WSW,238,2.0,2.0,28,0.00,,---,0.00,VWS V14.01,2013-06-03 21:22:00,
2013-06-03 14:27:00,92.3,52.5,29.70,WSW,246,0.0,0.0,26,0.00,,---,0.00,VWS V14.01,2013-06-03 21:27:00,
2013-06-03 14:32:00,92.6,53.8,29.70,SW,235,6.0,6.0,27,0.00,,---,0.00,VWS V14.01,2013-06-03 21:32:00,
2013-06-03 14:37:00,92.7,52.8,29.71,SW,221,0.0,0.0,26,0.00,,---,0.00,VWS V14.01,2013-06-03 21:37:00,
2013-06-03 14:42:00,92.5,53.7,29.70,SSW,210,0.0,1.0,27,0.00,,---,0.00,VWS V14.01,2013-06-03 21:42:00,
2013-06-03 14:47:00,92.8,54.9,29.70,West,268,8.0,9.0,28,0.00,,---,0.00,VWS V14.01,2013-06-03 21:47:00,
2013-06-03 14:52:00,93.4,54.5,29.70,West,279,0.0,2.0,27,0.00,,---,0.00,VWS V14.01,2013-06-03 21:52:00,
2013-06-03 14:57:00,93.8,52.7,29.70,SSW,198,4.0,4.0,25,0.00,,---,0.00,VWS V14.01,2013-06-03 21:57:00,
2013-06-03 15:02:00,93.8,54.8,29.70,WNW,289,1.0,2.0,27,0.00,,---,0.00,VWS V14.01,2013-06-03 22:02:00,
2013-06-03 15:07:00,94.2,53.0,29.70,WNW,294,1.0,3.0,25,0.00,,---,0.00,VWS V14.01,2013-06-03 22:07:00,
2013-06-03 15:12:00,94.4,56.3,29.70,WSW,248,6.0,6.0,28,0.00,,---,0.00,VWS V14.01,2013-06-03 22:12:00,
2013-06-03 15:17:00,94.6,57.5,29.70,SSW,205,0.0,3.0,29,0.00,,---,0.00,VWS V14.01,2013-06-03 22:17:00,
2013-06-03 15:22:00,94.6,58.4,29.70,WSW,246,3.0,6.0,30,0.00,,---,0.00,VWS V14.01,2013-06-03 22:22:00,
2013-06-03 15:27:00,94.4,57.3,29.70,SW,231,0.0,6.0,29,0.00,,---,0.00,VWS V14.01,2013-06-03 22:27:00,
2013-06-03 15:32:00,94.3,59.9,29.70,SSE,167,4.0,7.0,32,0.00,,---,0.00,VWS V14.01,2013-06-03 22:32:00,
2013-06-03 15:37:00,94.0,59.7,29.70,South,182,6.0,6.0,32,0.00,,---,0.00,VWS V14.01,2013-06-03 22:37:00,
2013-06-03 15:42:00,93.7,59.4,29.70,South,171,2.0,2.0,32,0.00,,---,0.00,VWS V14.01,2013-06-03 22:42:00,
2013-06-03 15:47:00,93.5,60.1,29.70,SW,230,4.0,10.0,33,0.00,,---,0.00,VWS V14.01,2013-06-03 22:47:00,
2013-06-03 15:52:00,93.3,60.8,29.70,South,184,3.0,9.0,34,0.00,,---,0.00,VWS V14.01,2013-06-03 22:52:00,
2013-06-03 15:57:00,93.0,59.7,29.69,SSW,202,0.0,1.0,33,0.00,,---,0.00,VWS V14.01,2013-06-03 22:57:00,
2013-06-03 16:02:00,92.8,59.5,29.69,WSW,238,5.0,5.0,33,0.00,,---,0.00,VWS V14.01,2013-06-03 23:02:00,
2013-06-03 16:07:00,92.7,59.4,29.69,SW,219,2.0,2.0,33,0.00,,---,0.00,VWS V14.01,2013-06-03 23:07:00,
2013-06-03 16:12:00,92.6,59.3,29.69,South,181,0.0,4.0,33,0.00,,---,0.00,VWS V14.01,2013-06-03 23:12:00,
2013-06-03 16:17:00,92.5,59.2,29.70,SSW,197,5.0,6.0,33,0.00,,---,0.00,VWS V14.01,2013-06-03 23:17:00,
2013-06-03 16:22:00,92.1,59.7,29.69,SW,233,2.0,5.0,34,0.00,,---,0.00,VWS V14.01,2013-06-03 23:22:00,
2013-06-03 16:27:00,91.9,58.7,29.69,SSW,209,2.0,3.0,33,0.00,,---,0.00,VWS V14.01,2013-06-03 23:27:00,
2013-06-03 16:32:00,91.6,59.3,29.70,SW,226,3.0,5.0,34,0.00,,---,0.00,VWS V14.01,2013-06-03 23:32:00,
2013-06-03 16:37:00,91.2,59.8,29.69,WSW,241,0.0,6.0,35,0.00,,---,0.00,VWS V14.01,2013-06-03 23:37:00,
2013-06-03 16:42:00,91.0,59.6,29.69,South,186,2.0,4.0,35,0.00,,---,0.00,VWS V14.01,2013-06-03 23:42:00,
2013-06-03 16:47:00,90.8,59.4,29.70,SW,217,0.0,1.0,35,0.00,,---,0.00,VWS V14.01,2013-06-03 23:47:00,
2013-06-03 16:52:00,90.4,59.0,29.70,South,172,0.0,7.0,35,0.00,,---,0.00,VWS V14.01,2013-06-03 23:52:00,
2013-06-03 16:57:00,89.8,59.3,29.70,SSE,150,0.0,3.0,36,0.00,,---,0.00,VWS V14.01,2013-06-03 23:57:00,
2013-06-03 17:02:00,89.7,59.2,29.70,SSE,161,2.0,5.0,36,0.00,,---,0.00,VWS V14.01,2013-06-04 00:02:00,
2013-06-03 17:07:00,89.4,59.0,29.69,SSW,204,10.0,10.0,36,0.00,,---,0.00,VWS V14.01,2013-06-04 00:07:00,
2013-06-03 17:12:00,89.2,59.5,29.69,South,185,6.0,6.0,37,0.00,,---,0.00,VWS V14.01,2013-06-04 00:12:00,
2013-06-03 17:17:00,89.1,59.5,29.69,SSW,193,0.0,10.0,37,0.00,,---,0.00,VWS V14.01,2013-06-04 00:17:00,
2013-06-03 17:22:00,88.8,59.2,29.69,South,177,0.0,5.0,37,0.00,,---,0.00,VWS V14.01,2013-06-04 00:22:00,
2013-06-03 17:27:00,88.6,59.0,29.69,South,172,10.0,10.0,37,0.00,,---,0.00,VWS V14.01,2013-06-04 00:27:00,
2013-06-03 17:32:00,88.4,59.6,29.69,South,173,10.0,11.0,38,0.00,,---,0.00,VWS V14.01,2013-06-04 00:32:00,
2013-06-03 17:37:00,88.3,58.8,29.69,South,172,4.0,5.0,37,0.00,,---,0.00,VWS V14.01,2013-06-04 00:37:00,
2013-06-03 17:42:00,88.0,59.2,29.69,South,172,1.0,6.0,38,0.00,,---,0.00,VWS V14.01,2013-06-04 00:42:00,
2013-06-03 17:47:00,87.4,59.4,29.69,SSW,194,6.0,8.0,39,0.00,,---,0.00,VWS V14.01,2013-06-04 00:47:00,
2013-06-03 17:52:00,87.2,58.5,29.69,SW,221,7.0,7.0,38,0.00,,---,0.00,VWS V14.01,2013-06-04 00:52:00,
2013-06-03 17:57:00,87.0,58.3,29.69,South,176,5.0,7.0,38,0.00,,---,0.00,VWS V14.01,2013-06-04 00:57:00,
2013-06-03 18:02:00,86.7,58.1,29.69,South,173,6.0,7.0,38,0.00,,---,0.00,VWS V14.01,2013-06-04 01:02:00,
2013-06-03 18:07:00,86.3,58.5,29.69,South,171,3.0,4.0,39,0.00,,---,0.00,VWS V14.01,2013-06-04 01:07:00,
2013-06-03 18:12:00,86.1,58.3,29.69,SE,133,0.0,9.0,39,0.00,,---,0.00,VWS V14.01,2013-06-04 01:12:00,
2013-06-03 18:17:00,85.9,58.1,29.69,WSW,248,3.0,6.0,39,0.00,,---,0.00,VWS V14.01,2013-06-04 01:17:00,
2013-06-03 18:22:00,85.6,57.8,29.69,South,174,1.0,10.0,39,0.00,,---,0.00,VWS V14.01,2013-06-04 01:22:00,
2013-06-03 18:27:00,85.3,57.6,29.69,South,181,4.0,8.0,39,0.00,,---,0.00,VWS V14.01,2013-06-04 01:27:00,
2013-06-03 18:32:00,85.0,58.0,29.69,South,179,0.0,1.0,40,0.00,,---,0.00,VWS V14.01,2013-06-04 01:32:00,
2013-06-03 18:37:00,84.7,57.7,29.70,SSW,198,6.0,6.0,40,0.00,,---,0.00,VWS V14.01,2013-06-04 01:37:00,
2013-06-03 18:42:00,84.3,57.4,29.70,SE,133,6.0,9.0,40,0.00,,---,0.00,VWS V14.01,2013-06-04 01:42:00,
2013-06-03 18:47:00,83.8,56.9,29.70,SSE,157,7.0,13.0,40,0.00,,---,0.00,VWS V14.01,2013-06-04 01:47:00,
2013-06-03 18:52:00,83.2,57.1,29.70,SSW,205,3.0,8.0,41,0.00,,---,0.00,VWS V14.01,2013-06-04 01:52:00,
2013-06-03 18:57:00,82.9,57.5,29.70,South,182,5.0,6.0,42,0.00,,---,0.00,VWS V14.01,2013-06-04 01:57:00,
2013-06-03 19:02:00,82.6,57.2,29.70,SSE,155,5.0,7.0,42,0.00,,---,0.00,VWS V14.01,2013-06-04 02:02:00,
2013-06-03 19:07:00,82.2,56.8,29.71,SSW,202,5.0,6.0,42,0.00,,---,0.00,VWS V14.01,2013-06-04 02:07:00,
2013-06-03 19:12:00,81.8,57.1,29.71,South,171,5.0,9.0,43,0.00,,---,0.00,VWS V14.01,2013-06-04 02:12:00,
2013-06-03 19:17:00,81.5,57.5,29.71,South,169,4.0,4.0,44,0.00,,---,0.00,VWS V14.01,2013-06-04 02:17:00,
2013-06-03 19:22:00,81.0,57.1,29.71,SSW,211,3.0,5.0,44,0.00,,---,0.00,VWS V14.01,2013-06-04 02:22:00,
2013-06-03 19:27:00,80.4,56.5,29.71,South,188,0.0,5.0,44,0.00,,---,0.00,VWS V14.01,2013-06-04 02:27:00,
2013-06-03 19:32:00,80.0,56.8,29.71,South,178,7.0,7.0,45,0.00,,---,0.00,VWS V14.01,2013-06-04 02:32:00,
2013-06-03 19:37:00,79.6,56.4,29.71,SSW,200,3.0,6.0,45,0.00,,---,0.00,VWS V14.01,2013-06-04 02:37:00,
2013-06-03 19:42:00,79.1,56.6,29.71,South,169,0.0,2.0,46,0.00,,---,0.00,VWS V14.01,2013-06-04 02:42:00,
2013-06-03 19:47:00,78.7,56.2,29.72,SSW,202,3.0,4.0,46,0.00,,---,0.00,VWS V14.01,2013-06-04 02:47:00,
2013-06-03 19:52:00,78.5,56.6,29.72,South,184,4.0,5.0,47,0.00,,---,0.00,VWS V14.01,2013-06-04 02:52:00,
2013-06-03 19:57:00,78.1,56.2,29.72,South,187,4.0,6.0,47,0.00,,---,0.00,VWS V14.01,2013-06-04 02:57:00,
2013-06-03 20:02:00,77.6,56.4,29.72,SE,130,0.0,3.0,48,0.00,,---,0.00,VWS V14.01,2013-06-04 03:02:00,
2013-06-03 20:07:00,77.1,55.9,29.72,South,180,0.0,6.0,48,0.00,,---,0.00,VWS V14.01,2013-06-04 03:07:00,
2013-06-03 20:12:00,76.6,55.5,29.72,SSE,167,0.0,5.0,48,0.00,,---,0.00,VWS V14.01,2013-06-04 03:12:00,
2013-06-03 20:17:00,76.0,55.5,29.72,SSE,161,0.0,6.0,49,0.00,,---,0.00,VWS V14.01,2013-06-04 03:17:00,
2013-06-03 20:22:00,75.5,55.6,29.73,South,178,7.0,7.0,50,0.00,,---,0.00,VWS V14.01,2013-06-04 03:22:00,
2013-06-03 20:27:00,74.9,55.0,29.73,South,176,6.0,9.0,50,0.00,,---,0.00,VWS V14.01,2013-06-04 03:27:00,
2013-06-03 20:32:00,74.3,55.0,29.73,South,171,4.0,4.0,51,0.00,,---,0.00,VWS V14.01,2013-06-04 03:32:00,
2013-06-03 20:37:00,73.8,54.6,29.73,SSE,159,5.0,5.0,51,0.00,,---,0.00,VWS V14.01,2013-06-04 03:37:00,
2013-06-03 20:42:00,73.3,54.6,29.73,SE,144,4.0,5.0,52,0.00,,---,0.00,VWS V14.01,2013-06-04 03:42:00,
2013-06-03 20:47:00,72.8,54.7,29.73,SSW,196,3.0,6.0,53,0.00,,---,0.00,VWS V14.01,2013-06-04 03:47:00,
2013-06-03 20:52:00,72.2,54.1,29.74,SSE,153,0.0,10.0,53,0.00,,---,0.00,VWS V14.01,2013-06-04 03:52:00,
2013-06-03 20:57:00,71.7,54.2,29.74,SE,145,4.0,7.0,54,0.00,,---,0.00,VWS V14.01,2013-06-04 03:57:00,
2013-06-03 21:01:00,71.4,53.9,29.74,SSE,159,3.0,4.0,54,0.00,,---,0.00,VWS V14.01,2013-06-04 04:01:00,
2013-06-03 21:06:00,71.0,54.0,29.74,SSE,158,6.0,6.0,55,0.00,,---,0.00,VWS V14.01,2013-06-04 04:06:00,
2013-06-03 21:11:00,70.6,54.2,29.74,SE,137,6.0,6.0,56,0.00,,---,0.00,VWS V14.01,2013-06-04 04:11:00,
2013-06-03 21:16:00,70.2,53.8,29.74,SSE,154,0.0,2.0,56,0.00,,---,0.00,VWS V14.01,2013-06-04 04:16:00,
2013-06-03 21:21:00,69.9,54.0,29.75,SE,132,0.0,0.0,57,0.00,,---,0.00,VWS V14.01,2013-06-04 04:21:00,
2013-06-03 21:26:00,69.7,54.8,29.75,SE,142,2.0,5.0,59,0.00,,---,0.00,VWS V14.01,2013-06-04 04:26:00,
2013-06-03 21:31:00,69.5,53.6,29.75,SE,137,1.0,1.0,57,0.00,,---,0.00,VWS V14.01,2013-06-04 04:31:00,
2013-06-03 21:37:00,69.3,53.4,29.76,SSE,152,4.0,4.0,57,0.00,,---,0.00,VWS V14.01,2013-06-04 04:37:00,
2013-06-03 21:42:00,69.0,53.6,29.76,SSE,154,4.0,4.0,58,0.00,,---,0.00,VWS V14.01,2013-06-04 04:42:00,
2013-06-03 21:47:00,68.7,53.8,29.76,SE,125,0.0,0.0,59,0.00,,---,0.00,VWS V14.01,2013-06-04 04:47:00,
2013-06-03 21:52:00,68.5,53.2,29.76,ESE,112,2.0,9.0,58,0.00,,---,0.00,VWS V14.01,2013-06-04 04:52:00,
2013-06-03 21:57:00,68.2,53.8,29.76,SE,138,1.0,5.0,60,0.00,,---,0.00,VWS V14.01,2013-06-04 04:57:00,
2013-06-03 22:02:00,68.1,53.7,29.76,SE,136,0.0,0.0,60,0.00,,---,0.00,VWS V14.01,2013-06-04 05:02:00,
2013-06-03 22:07:00,67.9,53.5,29.77,SE,142,0.0,8.0,60,0.00,,---,0.00,VWS V14.01,2013-06-04 05:07:00,
2013-06-03 22:12:00,67.9,54.0,29.77,SSE,164,8.0,8.0,61,0.00,,---,0.00,VWS V14.01,2013-06-04 05:12:00,
2013-06-03 22:17:00,67.6,53.2,29.76,SE,130,0.0,10.0,60,0.00,,---,0.00,VWS V14.01,2013-06-04 05:17:00,
2013-06-03 22:22:00,67.3,53.4,29.77,ESE,117,0.0,7.0,61,0.00,,---,0.00,VWS V14.01,2013-06-04 05:22:00,
2013-06-03 22:27:00,66.9,53.5,29.77,ESE,118,7.0,7.0,62,0.00,,---,0.00,VWS V14.01,2013-06-04 05:27:00,
2013-06-03 22:32:00,66.7,53.7,29.77,SE,138,11.0,11.0,63,0.00,,---,0.00,VWS V14.01,2013-06-04 05:32:00,
2013-06-03 22:37:00,66.3,52.9,29.77,SE,138,3.0,7.0,62,0.00,,---,0.00,VWS V14.01,2013-06-04 05:37:00,
2013-06-03 22:42:00,66.1,53.2,29.77,ESE,121,10.0,11.0,63,0.00,,---,0.00,VWS V14.01,2013-06-04 05:42:00,
2013-06-03 22:47:00,65.8,52.9,29.77,ESE,116,2.0,6.0,63,0.00,,---,0.00,VWS V14.01,2013-06-04 05:47:00,
2013-06-03 22:52:00,65.6,53.1,29.77,ESE,107,0.0,5.0,64,0.00,,---,0.00,VWS V14.01,2013-06-04 05:52:00,
2013-06-03 22:57:00,65.3,52.8,29.77,ESE,107,1.0,1.0,64,0.00,,---,0.00,VWS V14.01,2013-06-04 05:57:00,
2013-06-03 23:02:00,65.1,52.6,29.77,SE,124,0.0,0.0,64,0.00,,---,0.00,VWS V14.01,2013-06-04 06:02:00,
2013-06-03 23:07:00,64.8,52.8,29.77,SSE,162,9.0,9.0,65,0.00,,---,0.00,VWS V14.01,2013-06-04 06:07:00,
2013-06-03 23:12:00,64.5,52.9,29.77,ESE,121,0.0,4.0,66,0.00,,---,0.00,VWS V14.01,2013-06-04 06:12:00,
2013-06-03 23:17:00,64.4,52.8,29.77,ESE,118,7.0,7.0,66,0.00,,---,0.00,VWS V14.01,2013-06-04 06:17:00,
2013-06-03 23:22:00,64.3,52.3,29.77,SE,137,7.0,8.0,65,0.00,,---,0.00,VWS V14.01,2013-06-04 06:22:00,
2013-06-03 23:27:00,64.0,52.4,29.78,SE,132,2.0,4.0,66,0.00,,---,0.00,VWS V14.01,2013-06-04 06:27:00,
2013-06-03 23:32:00,63.8,52.2,29.78,SE,129,4.0,4.0,66,0.00,,---,0.00,VWS V14.01,2013-06-04 06:32:00,
2013-06-03 23:37:00,63.6,52.5,29.78,SE,130,1.0,5.0,67,0.00,,---,0.00,VWS V14.01,2013-06-04 06:37:00,
2013-06-03 23:42:00,63.5,52.4,29.78,ESE,121,0.0,5.0,67,0.00,,---,0.00,VWS V14.01,2013-06-04 06:42:00,
2013-06-03 23:47:00,63.3,52.2,29.78,SE,127,4.0,5.0,67,0.00,,---,0.00,VWS V14.01,2013-06-04 06:47:00,
2013-06-03 23:52:00,63.1,52.4,29.78,ESE,110,3.0,5.0,68,0.00,,---,0.00,VWS V14.01,2013-06-04 06:52:00,
2013-06-03 23:57:00,62.9,52.2,29.78,ESE,106,5.0,9.0,68,0.00,,---,0.00,VWS V14.01,2013-06-04 06:57:00,